Regional Weather Roundup
Issued by NWS

Home | Current Version | Previous Version | Text Only | Print | Product List | Glossary Off
Versions: 1 2 3 4 5 6 7 8 9 10 11 12 13 14 15 16 17 18 19 20 21 22 23 24 25 26 27 28 29 30 31 32 33 34 35 36 37 38 39 40 41 42 43 44 45 46 47 48 49 50

070
ASUS43 KLOT 241003
RWRIL

ILLINOIS REGIONAL WEATHER ROUNDUP
NATIONAL WEATHER SERVICE CHICAGO/ROMEOVILLE IL
500 AM CDT SUN JUL 24 2016

NOTE: "FAIR" INDICATES FEW OR NO CLOUDS BELOW 12,000 FEET WITH NO
SIGNIFICANT WEATHER AND/OR OBSTRUCTIONS TO VISIBILITY.

* THESE STATIONS ARE NOT UNDER NWS QUALITY CONTROL. THEY ALSO MAY NOT
  REPORT WEATHER SUCH AS PRECIPITATION OR FOG.

ILZ001-002-007-009-015-016-024-241100-
NORTHWEST ILLINOIS

CITY           SKY/WX    TMP DP  RH WIND       PRES   REMARKS
MOLINE         CLEAR     81  75  82 S12       29.85F HX  87
STERLING*      CLOUDY    75  74  96 VRB5      29.88S
SAVANNA*       CLOUDY    74  73  95 S8        29.86S
$$

ILZ003-004-008-010-011-017-018-241100-
NORTH CENTRAL ILLINOIS

CITY           SKY/WX    TMP DP  RH WIND       PRES   REMARKS
ROCKFORD       CLEAR     74  69  85 S5        29.89F
FREEPORT*      CLOUDY    73  72  96 S9        29.89F
ROCHELLE*      CLEAR     71  71  98 S5        29.90S FOG
$$

ILZ005-006-012>014-019>023-241100-
NORTHEAST ILLINOIS

CITY           SKY/WX    TMP DP  RH WIND       PRES   REMARKS
CHICAGO-OHARE  MOCLDY    71  69  93 S6        29.91R
CHICAGO-MIDWAY MOCLDY    73  69  87 S7        29.91R
AURORA         CLEAR     72  69  90 S6        29.91S
LANSING*       PTCLDY    70  69  95 S7        29.93R
WAUKEGAN       CLOUDY    72  69  90 S10       29.87F
DUPAGE AIRPORT PTCLDY    71  68  90 S8        29.91S
WHEELING       CLOUDY    71  70  96 S8        29.90F
MORRIS*        PTCLDY    71  70  96 S3        29.91S
NORTHERLY ISL    N/A     72  68  87 S2          N/A
$$

LMZ740>746-241100-
SOUTHERN LAKE MICHIGAN

STATION/POSITION SKY/WX   TEMP    WIND        PRES    VSBY  WAVE
                          AIR SEA DIR/SP/G                  HT/PER
                          (F)     (DEG/KT/KT) (MB)    (MI)  (FT/S)
SOUTHERN BUOY              72 72  140/ 16/ 19 1011.2          1/ 3
WILMETTE HARBOR            69 68  200/  8/ 10   N/A           1/ 3
HARRISON CRIB              73     200/ 11/ 12   N/A
BURNHAM HARBOR             72     190/  2/  7   N/A
CALUMET HARBOR             72     180/  6/  8 1012.3F
BURNS HARBOR               72     190/  5/ 10 1013.5F
MICHIGAN CITY              73     130/  9/ 11   N/A
MICHIGAN CITY 6N           74 73  170/  6/  8   N/A           1/ 4
ST. JOSEPH                 72 74  110/ 14/ 17 1012.6F         2/ 4
$$

ILZ025>027-034>036-040-047-049-050-058-095>099-241100-
WEST-CENTRAL ILLINOIS

CITY           SKY/WX    TMP DP  RH WIND       PRES   REMARKS
QUINCY         CLOUDY    79  75  87 S7        29.90S HX  83
GALESBURG*     PTCLDY    77  74  91 S8        29.89S
MACOMB*        CLEAR     77  75  93 S8        29.91S
JACKSONVILLE*  PTCLDY    78  75  90 S6        29.91S HX  80
PITTSFIELD*    PTCLDY    79  76  90 S5        29.92S HX  83
$$

ILZ028>032-037-038-041>044-048-051>054-059>061-241100-
CENTRAL ILLINOIS

CITY           SKY/WX    TMP DP  RH WIND       PRES   REMARKS
PONTIAC        CLEAR     74  74 100 SE6       29.93S
DECATUR        PTCLDY    78  74  87 S7        29.94S HX  81
PEORIA         CLEAR     78  76  93 S8        29.91S HX  81
LACON*         CLEAR     77  74  91 S6        29.90R
LINCOLN*       CLEAR     76  76 100 S3        29.93S FOG
SPRINGFIELD    PTCLDY    79  75  87 S5        29.92S HX  83
TAYLORVILLE    CLOUDY    75  74  98 NW3       29.94S FOG
$$

ILZ033-039-045-046-055>057-062-063-241100-
EAST-CENTRAL ILLINOIS

CITY           SKY/WX    TMP DP  RH WIND       PRES   REMARKS
CHAMPAIGN      PTCLDY    75  73  93 SE7       29.95F FOG
MATTOON        CLOUDY    74  73  97 SE5       29.95S FOG
PARIS*         FOG       73  73 100 CALM      29.97S VSB 1/2
$$

ILZ079-100>102-241100-
SOUTHWEST ILLINOIS

CITY           SKY/WX    TMP DP  RH WIND       PRES   REMARKS
ALTON          PTCLDY    74  73  96 CALM      29.93S FOG
BELLEVILLE     CLEAR     74  74 100 CALM      29.91F
CAHOKIA*       CLEAR     77  74  90 S5        29.92F
SPARTA*        CLEAR     74  73  96 CALM      29.95R FOG
$$

ILZ064>066-069>071-074>076-080>082-084>086-088>090-092>094-241100-
SOUTH-CENTRAL ILLINOIS

CITY           SKY/WX    TMP DP  RH WIND       PRES   REMARKS
CARBONDALE     CLEAR     75  73  93 CALM      29.94R FOG
EFFINGHAM*     CLEAR     73  73 100 CALM      29.97R FOG
MARION         PTCLDY    79  77  94 S3        29.95S HX  83
MT. VERNON     PTCLDY    73  68  83 CALM      29.94F
CENTRALIA*     CLOUDY    76  76 100 CALM      29.93S FOG
SALEM*         PTCLDY    78  75  92 SE3       29.94S FOG
METROPOLIS*    CLEAR     74  73  99 CALM      29.96S FOG
$$

ILZ067-068-072-073-078-083-087-091-241100-
SOUTHEAST ILLINOIS

CITY           SKY/WX    TMP DP  RH WIND       PRES   REMARKS
LAWRENCEVILLE  CLEAR     75  75 100 CALM      29.95F FOG
FLORA*         FOG       74  73  97 CALM      29.95R VSB 3/4
FAIRFIELD*     CLEAR     75  75 100 CALM      29.93S FOG
HARRISBURG*    PTCLDY    75  74  98 E3        29.95S FOG
ROBINSON*      FOG       72  72 100 CALM      29.96S VSB 1/2
CARMI*         CLEAR     74  74 100 CALM      29.94S FOG
$$

ABBREVIATIONS USED IN REMARKS
   TC - TEMPERATURE IN CELSIUS
  WCI - WIND CHILL INDEX
   HX - HEAT INDEX
  VSB - VISIBILITY
$$





USA.gov is the U.S. government's official web portal to all federal, state and local government web resources and services.